Wind_Speed
30 32 31 31 31 32 31 28 23 26 24 20 20 17 15 16 18 18 17 16 18 18 19 17 14 14 11 11 8 10 14 17 16 13 11 12 13 11 8 5 4 5 4
16 34 32 35 33 31 30 29 30 28 26 25 24 19 19 17 16 16 16 15 18 22 20 21 20 18 16 13 13 13 15 16 14 8 7 9 8 9 5 6 6 5 8
16 18 30 35 35 34 31 28 29 27 25 28 25 22 23 22 20 19 18 17 17 18 19 18 17 17 17 17 13 13 12 12 12 9 8 6 5 5 7 11 13 15 15
15 21 25 27 32 36 38 36 33 31 28 27 27 28 28 28 24 23 24 21 18 19 20 19 19 20 19 17 15 12 10 10 9 7 8 8 8 11 16 19 20 19 22
19 19 23 26 28 32 34 34 34 34 33 34 33 32 30 27 27 27 26 24 21 20 22 22 21 19 17 16 14 11 11 11 12 11 9 13 17 16 17 22 27 31 30
23 20 17 22 24 26 26 28 29 30 31 31 31 29 28 27 29 27 27 24 24 25 25 24 22 20 19 16 15 15 16 15 15 15 18 20 22 26 26 30 32 33 33
29 27 24 23 24 21 22 26 30 30 30 28 25 25 24 27 29 29 27 26 27 25 24 23 23 22 21 20 19 20 22 23 22 24 26 28 29 32 34 36 38 38 40
37 35 31 29 27 24 22 22 22 26 27 28 27 24 25 27 27 28 30 30 30 27 26 26 25 24 24 22 25 25 27 29 28 31 36 37 38 40 39 39 40 42 44
47 42 37 35 32 29 27 25 23 23 26 27 28 29 31 30 30 30 31 31 31 30 29 28 29 29 28 29 30 32 35 37 38 36 33 34 37 39 42 44 46 49 54
52 48 42 40 39 36 33 30 29 30 30 29 28 30 31 31 31 32 33 33 34 33 34 31 30 31 31 34 36 38 40 43 44 43 41 42 44 45 48 52 54 54 59
57 56 51 46 45 43 40 38 36 37 36 34 33 33 34 34 33 33 36 38 37 37 37 38 37 36 37 36 34 38 44 47 49 50 48 45 49 52 55 58 62 65 67
58 62 60 55 50 47 45 44 43 42 42 40 38 38 38 37 36 37 39 40 39 40 39 40 42 42 41 41 44 44 45 45 46 50 54 57 58 64 67 69 70 71 72
66 64 67 64 58 55 52 50 48 49 48 47 44 45 44 44 43 43 44 42 43 44 43 44 44 46 47 51 54 54 54 58 60 60 63 68 72 70 71 73 75 78 81
72 68 71 70 68 64 60 57 56 52 50 50 50 52 50 49 49 49 46 45 46 46 45 44 45 47 49 52 55 59 62 64 67 69 68 69 72 74 77 78 82 87 85
74 74 74 73 75 72 69 66 64 62 60 55 56 57 55 55 54 52 52 53 52 49 50 50 53 54 57 57 60 63 66 67 68 67 67 68 74 79 82 82 79 83 89
72 77 80 78 79 79 76 75 73 70 68 67 64 60 57 59 58 56 55 54 57 55 53 55 59 61 65 70 74 74 76 78 80 81 80 79 78 81 84 87 88 92 94
66 71 79 84 80 83 83 81 81 79 75 74 71 68 64 64 64 61 63 62 61 60 63 65 67 69 63 66 70 76 82 82 80 81 85 84 84 86 90 92 95 99 102
61 67 71 76 82 85 85 87 88 88 86 80 80 79 74 70 71 72 68 67 68 69 67 74 70 70 73 76 78 79 78 80 83 85 88 91 92 94 98 105 107 109 113
52 59 66 67 69 76 83 89 90 87 90 90 88 84 83 81 77 81 77 76 73 73 73 73 76 76 80 82 87 88 91 87 88 91 95 97 97 103 110 113 116 114 115
44 48 55 62 67 69 71 75 84 88 89 88 89 90 89 87 87 80 85 82 84 87 87 84 84 85 91 92 94 96 97 100 105 110 111 111 112 111 110 111 112 116 120
39 42 46 50 57 61 65 67 68 72 77 83 88 90 90 91 91 88 93 94 95 97 96 96 96 96 97 100 102 105 107 108 109 111 112 116 119 122 118 118 124 130 135
34 34 34 39 45 51 55 58 60 62 63 61 65 68 74 82 87 89 89 89 93 96 98 99 101 101 102 105 107 109 109 111 112 113 114 113 114 116 121 126 128 130 132
30 22 24 28 25 29 38 47 48 51 53 52 50 53 57 57 59 67 75 77 81 86 86 87 86 89 91 93 94 97 98 101 102 105 109 112 115 117 119 124 126 124 120
40 40 35 32 28 25 29 29 33 35 34 29 33 32 36 54 59 54 58 67 73 72 78 82 82 85 91 94 94 94 97 100 101 104 107 108 109 113 107 107 108 111 111
47 43 37 30 33 46 48 39 35 33 36 32 38 41 40 46 47 47 50 57 60 66 72 74 73 73 74 77 79 83 87 88 91 92 93 93 95 98 102 106 109 111 114
53 45 47 43 43 37 29 41 44 40 39 41 45 50 53 56 61 59 54 54 54 56 59 63 67 70 75 78 79 80 82 83 86 88 91 96 98 100 103 105 106 107 110
Wind_Direction
201 196 199 199 199 199 195 198 208 216 222 226 234 229 236 233 219 221 216 223 217 214 208 221 221 228 237 224 199 173 158 153 153 145 140 141 144 149 125 129 46 26 359
202 207 201 203 200 202 206 209 212 219 230 227 235 243 230 224 217 209 218 212 210 213 224 237 236 221 210 204 173 162 167 171 171 166 165 162 163 171 187 228 233 289 301
202 202 214 212 213 215 217 222 230 230 227 235 241 231 223 220 219 215 209 200 198 207 210 209 207 197 191 180 180 178 180 190 198 198 205 206 213 233 265 277 281 278 283
218 207 205 209 215 219 225 230 229 232 230 228 228 228 229 224 217 212 203 197 197 200 198 189 183 182 187 192 192 197 198 197 218 226 242 263 264 281 284 286 287 285 290
240 218 207 208 213 219 221 226 231 229 228 227 227 228 231 210 208 210 207 202 198 203 200 195 194 197 203 206 212 217 234 242 250 257 281 284 269 271 277 276 275 287 290
240 229 207 203 208 215 219 223 224 221 221 223 229 221 205 196 201 204 208 214 214 209 204 203 206 211 214 217 222 231 242 250 262 263 268 265 271 268 270 277 282 281 281
236 228 222 211 205 208 208 209 210 210 208 209 206 200 197 200 205 214 220 220 211 212 214 214 217 219 227 229 236 245 250 254 258 268 272 270 265 267 272 276 279 279 280
233 231 223 220 213 208 205 203 201 203 202 198 197 208 211 213 217 218 212 212 209 212 217 222 225 230 236 246 253 253 257 268 274 279 277 276 269 272 274 276 280 284 285
226 228 226 225 218 213 217 218 208 208 205 204 205 210 217 221 222 219 217 218 217 219 223 229 234 239 244 240 250 257 268 271 271 274 275 276 275 275 275 277 280 287 290
224 227 226 228 225 220 219 222 219 218 215 213 215 215 216 216 216 219 221 222 226 230 233 235 241 246 249 254 263 268 272 275 277 277 278 285 283 283 281 281 281 278 280
224 225 226 226 229 225 227 225 222 222 223 222 223 224 225 224 223 228 234 231 232 236 239 243 243 248 257 261 270 280 279 276 276 274 275 274 276 281 284 285 284 281 281
226 225 226 226 227 228 230 233 228 226 228 230 230 229 230 233 236 239 240 243 242 246 248 252 255 256 256 258 267 263 264 272 271 272 273 275 278 282 283 284 283 284 283
231 228 225 227 226 227 229 231 229 227 229 232 233 234 237 241 241 243 246 249 250 250 250 251 255 255 259 258 263 265 269 271 275 277 278 280 283 286 287 289 289 288 288
230 231 228 229 229 227 226 228 230 227 229 231 233 236 237 240 242 245 249 250 248 253 253 262 265 266 268 272 275 276 278 278 278 279 281 286 286 286 289 290 288 290 290
232 230 230 231 230 230 229 228 229 231 231 232 235 236 237 240 244 248 250 250 253 252 259 265 266 266 267 269 269 271 275 278 278 280 281 282 284 287 288 289 283 282 284
233 233 232 231 231 233 231 232 233 231 233 237 238 238 243 244 243 246 250 251 248 245 249 255 258 261 265 270 268 270 274 277 281 283 283 283 282 283 283 280 283 285 286
237 236 234 235 234 233 235 236 234 234 236 237 239 243 244 247 247 246 245 248 251 251 252 259 259 261 263 271 267 273 275 275 276 275 279 281 281 280 278 279 282 283 284
240 238 237 237 237 237 237 237 237 236 237 241 242 241 243 251 252 250 249 250 250 249 251 252 262 264 264 264 268 269 269 268 272 275 277 279 279 276 278 280 281 281 282
245 241 239 237 238 239 240 241 240 240 240 240 242 243 247 252 255 251 249 251 252 253 255 257 259 260 262 264 263 267 268 270 271 274 276 276 274 275 280 284 285 287 286
251 246 241 238 236 238 241 243 245 245 243 243 246 247 248 249 249 248 253 252 252 255 255 256 257 258 262 264 265 268 270 270 272 274 278 279 280 282 282 283 283 282 284
254 248 242 240 238 238 241 243 245 246 247 247 247 248 248 250 252 252 252 253 256 258 258 258 260 261 262 264 266 268 271 273 274 275 278 279 279 281 284 285 285 286 288
250 247 243 242 238 237 240 243 244 246 249 249 248 248 248 248 250 251 253 254 255 257 260 262 263 265 266 265 265 268 272 273 275 277 278 279 281 283 284 286 287 288 289
233 201 232 239 239 243 246 241 243 248 251 254 253 249 246 248 251 252 253 255 257 258 260 262 264 266 267 267 269 271 273 277 278 279 280 282 282 283 284 285 288 290 292
206 207 223 221 247 247 242 248 250 236 241 250 260 261 260 251 252 256 259 260 262 265 266 267 270 271 272 273 275 277 277 277 279 280 281 284 285 288 290 291 295 295 298
209 206 210 216 216 241 244 258 264 259 256 238 247 251 253 267 271 270 269 272 275 273 272 274 275 275 276 278 279 280 281 284 287 287 290 292 292 294 296 296 298 299 299
207 207 212 221 215 226 234 247 262 265 264 254 249 249 260 266 267 268 271 276 278 281 285 286 286 285 285 285 287 289 291 291 292 292 293 295 295 296 298 299 299 299 300
Height
10938 10942 10944 10948 10953 10955 10957 10962 10965 10968 10970 10972 10973 10975 10977 10977 10978 10980 10983 10985 10987 10989 10990 10991 10993 10994 10995 10996 10997 10997 10997 10998 10999 11000 11001 11004 11007 11006 11007 11008 11008 11006 11004
10935 10939 10942 10945 10950 10954 10958 10960 10963 10965 10968 10970 10970 10972 10973 10975 10976 10978 10980 10982 10984 10986 10987 10988 10989 10991 10993 10995 10996 10996 10997 10999 10999 11000 11001 11002 11003 11005 11006 11006 11003 11001 11001
10933 10935 10939 10943 10947 10951 10955 10957 10960 10963 10965 10968 10970 10970 10971 10972 10974 10976 10978 10980 10982 10984 10985 10986 10987 10989 10992 10994 10995 10996 10997 10999 10999 11000 11001 11001 11002 11003 11003 11002 11001 10999 10998
10930 10932 10935 10940 10944 10947 10950 10953 10956 10959 10961 10963 10965 10966 10968 10970 10972 10973 10975 10978 10981 10983 10986 10986 10988 10990 10991 10993 10994 10995 10997 10998 10998 10998 10999 11000 11000 11000 11000 10999 10998 10998 10995
10925 10928 10932 10935 10939 10941 10945 10947 10950 10953 10954 10955 10956 10958 10962 10966 10969 10972 10974 10976 10978 10980 10984 10986 10988 10989 10990 10991 10992 10994 10995 10995 10995 10996 10996 10997 10997 10997 10996 10995 10993 10992 10990
10921 10924 10928 10929 10932 10935 10938 10940 10942 10945 10947 10950 10953 10953 10956 10960 10965 10970 10973 10974 10974 10977 10981 10983 10985 10986 10987 10988 10990 10990 10991 10992 10991 10993 10992 10992 10992 10990 10990 10988 10987 10984 10982
10916 10920 10923 10925 10927 10931 10933 10934 10936 10938 10940 10944 10949 10953 10955 10958 10962 10965 10970 10973 10974 10975 10977 10979 10980 10982 10983 10984 10985 10985 10986 10987 10988 10987 10987 10986 10984 10983 10981 10980 10978 10976 10973
10908 10913 10917 10920 10923 10927 10930 10932 10934 10936 10937 10940 10944 10949 10953 10956 10959 10962 10964 10967 10971 10973 10975 10976 10977 10978 10979 10980 10980 10980 10981 10981 10981 10980 10979 10978 10976 10974 10972 10970 10968 10965 10962
10898 10904 10909 10913 10918 10921 10925 10929 10932 10935 10937 10939 10941 10944 10948 10952 10956 10958 10961 10963 10966 10968 10969 10970 10972 10973 10974 10975 10976 10976 10975 10973 10971 10970 10968 10967 10965 10963 10961 10958 10956 10953 10948
10890 10896 10902 10906 10911 10915 10919 10922 10927 10929 10932 10936 10939 10943 10945 10947 10950 10954 10956 10958 10961 10962 10963 10964 10966 10967 10967 10968 10968 10967 10964 10963 10961 10959 10957 10955 10953 10951 10948 10946 10942 10937 10934
10879 10885 10892 10897 10902 10907 10912 10915 10918 10921 10924 10928 10931 10935 10939 10940 10944 10948 10950 10951 10953 10953 10955 10956 10957 10959 10958 10959 10959 10958 10955 10953 10951 10948 10946 10944 10941 10938 10935 10932 10927 10922 10917
10867 10874 10880 10885 10892 10898 10903 10907 10911 10913 10916 10919 10923 10926 10929 10933 10936 10938 10940 10941 10944 10944 10946 10947 10948 10948 10948 10948 10947 10945 10943 10940 10938 10936 10934 10931 10928 10924 10921 10917 10912 10907 10903
10852 10860 10867 10873 10879 10885 10891 10896 10900 10904 10908 10911 10915 10918 10921 10923 10925 10927 10930 10932 10934 10935 10935 10936 10937 10937 10936 10935 10933 10932 10930 10928 10926 10923 10920 10916 10912 10907 10902 10897 10893 10887 10882
10837 10844 10852 10859 10865 10871 10877 10883 10887 10893 10897 10901 10904 10907 10910 10912 10914 10917 10919 10921 10923 10924 10925 10925 10925 10925 10924 10923 10921 10918 10916 10913 10910 10907 10905 10900 10893 10888 10883 10878 10871 10865 10860
10819 10828 10833 10840 10848 10855 10862 10868 10873 10878 10883 10887 10890 10894 10897 10899 10902 10905 10907 10909 10910 10913 10914 10914 10913 10912 10911 10908 10905 10902 10899 10896 10893 10890 10887 10884 10877 10869 10864 10857 10851 10844 10836
10800 10807 10813 10821 10830 10837 10844 10851 10856 10862 10866 10869 10874 10879 10884 10886 10888 10891 10894 10895 10897 10900 10900 10900 10899 10898 10896 10891 10887 10886 10884 10881 10877 10872 10869 10864 10859 10854 10845 10837 10830 10823 10815
10783 10788 10797 10803 10810 10818 10825 10831 10837 10844 10850 10855 10859 10864 10867 10872 10874 10877 10879 10881 10883 10885 10885 10884 10884 10883 10881 10876 10870 10867 10864 10862 10857 10853 10848 10843 10838 10830 10824 10814 10808 10799 10791
10765 10770 10776 10784 10791 10798 10805 10811 10817 10824 10832 10837 10841 10847 10851 10857 10859 10861 10864 10866 10866 10867 10867 10869 10867 10864 10862 10859 10855 10850 10846 10842 10838 10833 10827 10821 10814 10806 10798 10791 10782 10773 10762
10749 10754 10760 10767 10772 10778 10783 10789 10796 10805 10812 10817 10821 10830 10835 10840 10842 10840 10846 10848 10849 10848 10849 10848 10846 10844 10842 10838 10834 10829 10827 10822 10816 10810 10804 10797 10789 10781 10773 10764 10754 10745 10735
10735 10738 10743 10749 10754 10759 10764 10769 10776 10784 10792 10799 10801 10808 10814 10822 10822 10818 10826 10829 10829 10826 10825 10826 10825 10823 10818 10816 10813 10810 10806 10800 10794 10787 10780 10772 10765 10757 10747 10738 10728 10718 10707
10721 10723 10726 10732 10737 10742 10749 10754 10758 10764 10770 10776 10781 10786 10792 10798 10802 10803 10804 10807 10803 10801 10802 10802 10802 10800 10798 10794 10790 10786 10781 10776 10770 10762 10755 10749 10739 10731 10717 10709 10696 10683 10674
10709 10712 10715 10718 10724 10729 10733 10737 10742 10747 10752 10758 10762 10766 10770 10774 10776 10779 10779 10781 10780 10780 10779 10779 10776 10774 10772 10769 10765 10761 10757 10750 10745 10737 10729 10718 10708 10700 10690 10680 10667 10657 10645
10699 10701 10705 10710 10715 10720 10722 10726 10732 10735 10739 10742 10746 10749 10752 10755 10757 10758 10757 10760 10759 10759 10757 10755 10754 10751 10748 10743 10740 10735 10730 10724 10716 10709 10701 10690 10682 10673 10662 10652 10641 10628 10616
10689 10693 10697 10703 10708 10714 10716 10719 10723 10726 10728 10732 10734 10736 10736 10739 10740 10740 10739 10739 10739 10741 10740 10736 10732 10729 10725 10720 10714 10710 10703 10698 10692 10683 10677 10665 10656 10651 10636 10624 10612 10598 10590
10678 10682 10689 10694 10697 10704 10705 10710 10713 10716 10719 10722 10724 10725 10725 10724 10724 10725 10725 10724 10724 10722 10721 10718 10713 10708 10704 10699 10693 10686 10681 10673 10665 10660 10652 10640 10629 10621 10610 10597 10586 10572 10558
10669 10674 10680 10686 10691 10695 10698 10701 10702 10705 10707 10709 10710 10711 10712 10712 10712 10712 10711 10710 10707 10704 10700 10697 10693 10688 10683 10678 10673 10667 10658 10651 10642 10633 10627 10617 10607 10595 10584 10572 10560 10547 10532